Regional Weather Roundup
Issued by NWS Little Rock, AR

Home | Current Version | Previous Version | Text Only | Print | Product List | Glossary On
Versions: 1 2 3 4 5 6 7 8 9 10 11 12 13 14 15 16 17 18 19 20 21 22 23 24 25 26 27
000
ASUS44 KLZK 291405
RWRLZK

WEATHER ROUNDUP FOR ARKANSAS
NATIONAL WEATHER SERVICE LITTLE ROCK AR
900 AM CDT MON AUG 29 2016

NOTE: "FAIR" INDICATES FEW OR NO CLOUDS BELOW 12,000 FEET WITH NO
SIGNIFICANT WEATHER AND/OR OBSTRUCTIONS TO VISIBILITY.

ARZ001-003-010-029-291500-
NORTHWEST ARKANSAS

CITY           SKY/WX    TMP DP  RH WIND       PRES   REMARKS
FAYETTEVILLE   MOSUNNY   73  71  93 E5        30.17S
FORT SMITH     SUNNY     80  71  74 E3        30.12R
HARRISON       MOSUNNY   78  74  87 CALM      30.20R
BENTONVILLE    SUNNY     81  68  65 E5        30.18S
ROGERS         SUNNY     77  71  82 E9        30.19S
SILOAM SPGS    SUNNY     75  64  69 CALM      30.18
HIGHFILL       SUNNY     78  72  81 E3        30.18S
SPRINGDALE     SUNNY     77  72  83 E6        30.20R
$$

ARZ004-005-016-291500-
NORTH CENTRAL ARKANSAS

CITY           SKY/WX    TMP DP  RH WIND       PRES   REMARKS
BATESVILLE     SUNNY     77  73  88 W3        30.14R
FLIPPIN        MOSUNNY   79  72  78 NE3       30.14F
MTN HOME       MOSUNNY   78  73  84 E5        30.17R
$$

ARZ040-041-291500-
WEST CENTRAL ARKANSAS

CITY           SKY/WX    TMP DP  RH WIND       PRES   REMARKS
MENA           SUNNY     79  77  94 CALM      30.14R
MOUNT IDA      MOSUNNY   78  74  87 CALM      30.10R
$$

ARZ009-017-025-026-028-291500-
NORTHEAST ARKANSAS

CITY           SKY/WX    TMP DP  RH WIND       PRES   REMARKS
JONESBORO      SUNNY     82  75  79 E8        30.12R HX  89
NEWPORT        CLOUDY    80  76  87 NE6       30.13R HX  86
WALNUT RIDGE   SUNNY     81  75  83 NE6       30.13S HX  86
BLYTHEVILLE    MOSUNNY   83  75  77 E3        30.13R HX  90
NW BLYTHEVILLE SUNNY     82  73  74 E3        30.12S HX  88
$$

ARZ022-023-033-042-044-291500-
CENTRAL ARKANSAS

CITY           SKY/WX    TMP DP  RH WIND       PRES   REMARKS
LITTLE ROCK    PTSUNNY   84  75  74 N6        30.10R HX  92
N LITTLE ROCK    N/A     80  75  86 NE3       30.08R HX  85
JACKSONVILLE   MOSUNNY   80  76  87 CALM      30.10S HX  85
SEARCY         MOSUNNY   80  75  84 NE6       30.13R HX  85
HOT SPRINGS    MOSUNNY   80  74  81 CALM      30.11R HX  85
RUSSELLVILLE   SUNNY     79  73  82 CALM      30.12R
$$

ARZ036-291500-
EAST ARKANSAS

CITY           SKY/WX    TMP DP  RH WIND       PRES   REMARKS
WEST MEMPHIS   SUNNY     83  73  72 SE6       30.09S HX  89
$$

ARZ050-053-066-070-073-291500-
SOUTHWEST ARKANSAS

CITY           SKY/WX    TMP DP  RH WIND       PRES   REMARKS
ARKADELPHIA    FAIR      78  75  90 NE7       30.09R
TEXARKANA      SUNNY     79  75  87 NE6       30.07R
EL DORADO      MOSUNNY   80  76  87 NE3       30.06S HX  86
DE QUEEN       MOSUNNY   80  77  90 E3        30.07R HX  87
$$

ARZ056-057-069-291500-
SOUTHEAST ARKANSAS

CITY           SKY/WX    TMP DP  RH WIND       PRES   REMARKS
PINE BLUFF     PTSUNNY   84  73  69 NE5       30.08S HX  90
STUTTGART      MOSUNNY   81  73  78 NE6       30.10S HX  85
MONTICELLO     SUNNY     86  72  62 NE5       30.07S HX  92

$$






USA.gov is the U.S. government's official web portal to all federal, state and local government web resources and services.